Location: Centerville
(32.8776°N, 96.6203°W)
Time: 15:32:39
(UTC+00:00)

Cosmos 1331 Rocket - Pass Details

Date: 17 June 2021
Orbit: 749 x 778 km, 74.0° (Epoch: 27 July)

Event Time Altitude Azimuth Distance (km) Brightness Sun altitude
Exits shadow 04:02:31 36° 212° (SSW) 1,181 4.7 -24.0°
Maximum altitude 04:04:37 72° 287° (WNW) 804 4.1 -24.2°
Drops below altitude 10° 04:09:51 10° 12° (NNE) 2,315 7.0 -24.9°
Sets 04:12:16 0° 15° (NNE) 3,249 7.8 -25.2°
